Location: Shenandoah County Park
(38.9356°N, 78.4524°W)
Time: 05:51:37
(UTC-05:00)

Vanguard 1 - Visible Passes

Search period start: 31 January 2023 00:00
Search period end: 10 February 2023 00:00
Orbit: 649 x 3831 km, 34.2° (Epoch: 30 January)

Date Brightness Start Highest point End Pass type
(mag) Time Alt. Az. Time Alt. Az. Time Alt. Az.
31 Jan 11.9 05:10:11 20° SSW 05:15:28 44° SSE 05:27:54 10° E visible
01 Feb 12.6 03:17:16 14° SE 03:17:16 14° SE 03:21:06 10° ESE visible
01 Feb 11.7 05:29:58 18° SW 05:35:49 53° SSE 05:49:14 10° E visible
02 Feb 12.2 03:37:00 21° SE 03:37:00 21° SE 03:43:22 10° E visible
02 Feb 11.5 05:49:42 15° WSW 05:56:18 61° SSE 06:10:33 10° E visible
03 Feb 11.7 03:56:42 30° SE 03:56:44 30° SE 04:05:00 10° E visible
03 Feb 11.5 06:09:24 12° WSW 06:16:55 67° SSE 06:31:50 10° E visible
04 Feb 11.3 04:16:21 38° SSE 04:16:55 39° SSE 04:26:20 10° E visible
04 Feb 11.6 06:29:30 10° WSW 06:37:36 70° S 06:53:08 10° E visible
05 Feb 10.9 04:35:58 44° S 04:37:14 48° SSE 04:47:34 10° E visible
06 Feb 10.8 04:55:34 43° SSW 04:57:40 56° SSE 05:08:44 10° E visible
07 Feb 12.5 03:02:27 16° ESE 03:02:27 16° ESE 03:04:28 10° E visible
07 Feb 10.9 05:15:08 36° SW 05:18:13 63° S 05:29:54 10° E visible
08 Feb 12.1 03:22:00 23° ESE 03:22:00 23° ESE 03:25:43 10° E visible
08 Feb 11.0 05:34:41 28° WSW 05:38:49 66° S 05:51:04 10° E visible
09 Feb 11.6 03:41:32 32° ESE 03:41:32 32° ESE 03:46:49 10° E visible
09 Feb 11.1 05:54:14 20° WSW 05:59:29 66° S 06:12:13 10° ESE visible
